Time,TemperatureF,DewpointF,PressureIn,WindDirection,WindDirectionDegrees,WindSpeedMPH,WindSpeedGustMPH,Humidity,HourlyPrecipIn,Conditions,Clouds,dailyrainin,SoftwareType,DateUTC
2013-10-18 00:00:00,39.5,35.1,29.36,North,0,0.0,0.0,84,0.00,,,-99.99,VWS V12.07,2013-10-18 05:00:00,
2013-10-18 00:05:00,39.3,35.2,29.36,North,0,0.0,0.0,85,0.00,,,-99.99,VWS V12.07,2013-10-18 05:05:00,
2013-10-18 00:10:00,39.3,35.2,29.36,North,0,0.0,0.0,85,0.00,,,-99.99,VWS V12.07,2013-10-18 05:10:00,
2013-10-18 00:15:00,39.3,35.2,29.36,North,0,0.0,0.0,85,0.00,,,-99.99,VWS V12.07,2013-10-18 05:15:00,
2013-10-18 00:20:00,39.3,35.2,29.36,North,0,0.0,0.0,85,0.00,,,-99.99,VWS V12.07,2013-10-18 05:20:00,
2013-10-18 00:25:00,39.3,35.2,29.36,North,0,0.0,0.0,85,0.00,,,-99.99,VWS V12.07,2013-10-18 05:25:00,
2013-10-18 00:30:00,39.3,35.2,29.36,North,0,0.0,0.0,85,0.00,,,-99.99,VWS V12.07,2013-10-18 05:30:00,
2013-10-18 00:35:00,39.3,35.2,29.36,North,0,0.0,0.0,85,0.00,,,-99.99,VWS V12.07,2013-10-18 05:35:00,
2013-10-18 00:40:00,39.3,35.2,29.36,North,0,0.0,0.0,85,0.00,,,-99.99,VWS V12.07,2013-10-18 05:40:00,
2013-10-18 00:45:00,39.3,35.2,29.36,North,0,0.0,0.0,85,0.00,,,-99.99,VWS V12.07,2013-10-18 05:45:00,
2013-10-18 00:50:00,39.3,35.2,29.37,North,0,0.0,0.0,85,0.00,,,-99.99,VWS V12.07,2013-10-18 05:50:00,
2013-10-18 00:55:00,39.0,34.9,29.37,North,0,0.0,0.0,85,0.00,,,-99.99,VWS V12.07,2013-10-18 05:55:00,
2013-10-18 01:00:00,39.0,34.9,29.37,North,0,0.0,0.0,85,0.00,,,-99.99,VWS V12.07,2013-10-18 06:00:00,
2013-10-18 01:05:00,39.0,34.9,29.37,North,0,0.0,0.0,85,0.00,,,-99.99,VWS V12.07,2013-10-18 06:05:00,
2013-10-18 01:10:00,39.0,34.9,29.36,North,0,0.0,0.0,85,0.00,,,-99.99,VWS V12.07,2013-10-18 06:10:00,
2013-10-18 01:15:00,39.0,34.9,29.36,North,0,0.0,0.0,85,0.00,,,-99.99,VWS V12.07,2013-10-18 06:15:00,
2013-10-18 01:20:00,39.0,34.9,29.36,North,0,0.0,0.0,85,0.00,,,-99.99,VWS V12.07,2013-10-18 06:20:00,
2013-10-18 01:25:00,39.0,34.9,29.37,North,0,0.0,0.0,85,0.00,,,-99.99,VWS V12.07,2013-10-18 06:25:00,
2013-10-18 01:30:00,39.0,35.2,29.37,North,0,0.0,0.0,86,0.00,,,-99.99,VWS V12.07,2013-10-18 06:30:00,
2013-10-18 01:35:00,39.0,35.2,29.36,North,0,0.0,0.0,86,0.00,,,-99.99,VWS V12.07,2013-10-18 06:35:00,
2013-10-18 01:40:00,39.0,35.2,29.36,North,0,0.0,0.0,86,0.00,,,-99.99,VWS V12.07,2013-10-18 06:40:00,
2013-10-18 01:45:00,39.0,35.2,29.37,North,0,0.0,0.0,86,0.00,,,-99.99,VWS V12.07,2013-10-18 06:45:00,
2013-10-18 01:50:00,39.0,35.2,29.36,North,0,0.0,0.0,86,0.00,,,-99.99,VWS V12.07,2013-10-18 06:50:00,
2013-10-18 01:55:00,39.0,35.2,29.36,North,0,0.0,0.0,86,0.00,,,-99.99,VWS V12.07,2013-10-18 06:55:00,
2013-10-18 02:00:00,39.0,35.2,29.36,North,0,0.0,0.0,86,0.00,,,-99.99,VWS V12.07,2013-10-18 07:00:00,
2013-10-18 02:05:00,39.0,35.2,29.36,North,0,0.0,0.0,86,0.00,,,-99.99,VWS V12.07,2013-10-18 07:05:00,
2013-10-18 02:10:00,39.0,35.2,29.36,North,0,0.0,0.0,86,0.00,,,-99.99,VWS V12.07,2013-10-18 07:10:00,
2013-10-18 02:15:00,38.8,35.0,29.36,North,0,0.0,0.0,86,0.00,,,-99.99,VWS V12.07,2013-10-18 07:15:00,
2013-10-18 02:20:00,38.8,35.0,29.36,North,0,0.0,0.0,86,0.00,,,-99.99,VWS V12.07,2013-10-18 07:20:00,
2013-10-18 02:25:00,38.8,35.0,29.36,North,0,0.0,0.0,86,0.00,,,-99.99,VWS V12.07,2013-10-18 07:25:00,
2013-10-18 02:30:00,38.8,35.0,29.36,North,0,0.0,0.0,86,0.00,,,-99.99,VWS V12.07,2013-10-18 07:30:00,
2013-10-18 02:35:00,38.8,35.0,29.36,North,0,0.0,0.0,86,0.00,,,-99.99,VWS V12.07,2013-10-18 07:35:00,
2013-10-18 02:40:00,39.0,35.2,29.36,North,0,0.0,0.0,86,0.00,,,-99.99,VWS V12.07,2013-10-18 07:40:00,
2013-10-18 02:45:00,39.0,35.5,29.36,North,0,0.0,0.0,87,0.00,,,-99.99,VWS V12.07,2013-10-18 07:45:00,
2013-10-18 02:50:00,39.0,35.5,29.36,North,0,0.0,0.0,87,0.00,,,-99.99,VWS V12.07,2013-10-18 07:50:00,
2013-10-18 02:55:00,39.0,35.5,29.36,North,0,0.0,0.0,87,0.00,,,-99.99,VWS V12.07,2013-10-18 07:55:00,
2013-10-18 03:00:00,39.0,35.5,29.36,North,0,0.0,0.0,87,0.00,,,-99.99,VWS V12.07,2013-10-18 08:00:00,
2013-10-18 03:05:00,39.0,35.5,29.36,North,0,0.0,0.0,87,0.00,,,-99.99,VWS V12.07,2013-10-18 08:05:00,
2013-10-18 03:10:00,39.0,35.5,29.36,North,0,0.0,0.0,87,0.00,,,-99.99,VWS V12.07,2013-10-18 08:10:00,
2013-10-18 03:15:00,39.0,35.5,29.36,North,0,0.0,0.0,87,0.02,,,-99.99,VWS V12.07,2013-10-18 08:15:00,
2013-10-18 03:20:00,39.0,35.5,29.35,North,0,0.0,0.0,87,0.02,,,-99.99,VWS V12.07,2013-10-18 08:20:00,
2013-10-18 03:25:00,39.0,35.5,29.36,North,0,0.0,0.0,87,0.02,,,-99.99,VWS V12.07,2013-10-18 08:25:00,
2013-10-18 03:30:00,39.3,35.8,29.36,North,0,0.0,0.0,87,0.02,,,-99.99,VWS V12.07,2013-10-18 08:30:00,
2013-10-18 03:35:00,39.3,35.8,29.35,North,0,0.0,0.0,87,0.02,,,-99.99,VWS V12.07,2013-10-18 08:35:00,
2013-10-18 03:40:00,39.3,35.8,29.35,North,0,0.0,0.0,87,0.02,,,-99.99,VWS V12.07,2013-10-18 08:40:00,
2013-10-18 03:45:00,39.3,35.8,29.35,North,0,0.0,0.0,87,0.02,,,-99.99,VWS V12.07,2013-10-18 08:45:00,
2013-10-18 03:50:00,39.3,35.8,29.35,North,0,0.0,0.0,87,0.02,,,-99.99,VWS V12.07,2013-10-18 08:50:00,
2013-10-18 03:55:00,39.3,35.8,29.35,North,0,0.0,0.0,87,0.02,,,-99.99,VWS V12.07,2013-10-18 08:55:00,
2013-10-18 04:00:00,39.3,35.8,29.35,North,0,0.0,0.0,87,0.02,,,-99.99,VWS V12.07,2013-10-18 09:00:00,
2013-10-18 04:05:00,39.3,35.8,29.35,North,0,0.0,0.0,87,0.02,,,-99.99,VWS V12.07,2013-10-18 09:05:00,
2013-10-18 04:10:00,39.3,35.8,29.35,North,0,0.0,0.0,87,0.00,,,-99.99,VWS V12.07,2013-10-18 09:10:00,
2013-10-18 04:15:00,39.3,35.8,29.35,North,0,0.0,0.0,87,0.00,,,-99.99,VWS V12.07,2013-10-18 09:15:00,
2013-10-18 04:20:00,39.3,35.8,29.35,North,0,0.0,0.0,87,0.00,,,-99.99,VWS V12.07,2013-10-18 09:20:00,
2013-10-18 04:25:00,39.3,35.8,29.35,North,0,0.0,0.0,87,0.00,,,-99.99,VWS V12.07,2013-10-18 09:25:00,
2013-10-18 04:30:00,39.3,35.8,29.35,North,0,0.0,0.0,87,0.00,,,-99.99,VWS V12.07,2013-10-18 09:30:00,
2013-10-18 04:35:00,39.3,35.8,29.35,North,0,0.0,0.0,87,0.00,,,-99.99,VWS V12.07,2013-10-18 09:35:00,
2013-10-18 04:40:00,39.2,35.7,29.35,North,0,0.0,0.0,87,0.00,,,-99.99,VWS V12.07,2013-10-18 09:40:00,
2013-10-18 04:45:00,39.0,35.5,29.34,North,0,0.0,0.0,87,0.00,,,-99.99,VWS V12.07,2013-10-18 09:45:00,
2013-10-18 04:50:00,39.2,35.7,29.34,North,0,0.0,0.0,87,0.00,,,-99.99,VWS V12.07,2013-10-18 09:50:00,
2013-10-18 04:55:00,39.2,35.7,29.34,North,0,0.0,0.0,87,0.00,,,-99.99,VWS V12.07,2013-10-18 09:55:00,
2013-10-18 05:00:00,39.2,36.0,29.34,North,0,0.0,0.0,88,0.00,,,-99.99,VWS V12.07,2013-10-18 10:00:00,
2013-10-18 05:05:00,39.3,36.0,29.34,North,0,0.0,0.0,88,0.00,,,-99.99,VWS V12.07,2013-10-18 10:05:00,
2013-10-18 05:10:00,39.3,36.0,29.34,North,0,0.0,0.0,88,0.00,,,-99.99,VWS V12.07,2013-10-18 10:10:00,
2013-10-18 05:15:00,39.3,36.0,29.34,North,0,0.0,0.0,88,0.00,,,-99.99,VWS V12.07,2013-10-18 10:15:00,
2013-10-18 05:20:00,39.3,36.0,29.34,North,0,0.0,0.0,88,0.00,,,-99.99,VWS V12.07,2013-10-18 10:20:00,
2013-10-18 05:25:00,39.3,36.0,29.34,North,0,0.0,0.0,88,0.02,,,-99.99,VWS V12.07,2013-10-18 10:25:00,
2013-10-18 05:30:00,39.3,36.0,29.34,North,0,0.0,0.0,88,0.02,,,-99.99,VWS V12.07,2013-10-18 10:30:00,
2013-10-18 05:35:00,39.3,36.0,29.35,North,0,0.0,0.0,88,0.02,,,-99.99,VWS V12.07,2013-10-18 10:35:00,
2013-10-18 05:40:00,39.3,36.0,29.35,North,0,0.0,0.0,88,0.02,,,-99.99,VWS V12.07,2013-10-18 10:40:00,
2013-10-18 05:45:00,39.3,36.0,29.35,North,0,0.0,0.0,88,0.02,,,-99.99,VWS V12.07,2013-10-18 10:45:00,
2013-10-18 05:50:00,39.3,36.0,29.35,North,0,0.0,0.0,88,0.02,,,-99.99,VWS V12.07,2013-10-18 10:50:00,
2013-10-18 05:55:00,39.3,36.0,29.35,North,0,0.0,0.0,88,0.02,,,-99.99,VWS V12.07,2013-10-18 10:55:00,
2013-10-18 06:00:00,39.5,36.2,29.35,North,0,0.0,0.0,88,0.02,,,-99.99,VWS V12.07,2013-10-18 11:00:00,
2013-10-18 06:05:00,39.5,36.2,29.35,North,0,0.0,0.0,88,0.02,,,-99.99,VWS V12.07,2013-10-18 11:05:00,
2013-10-18 06:10:00,39.5,36.2,29.35,North,0,0.0,0.0,88,0.02,,,-99.99,VWS V12.07,2013-10-18 11:10:00,
2013-10-18 06:15:00,39.5,36.2,29.35,North,0,0.0,0.0,88,0.04,,,-99.99,VWS V12.07,2013-10-18 11:15:00,
2013-10-18 06:20:00,39.5,36.2,29.35,North,0,0.0,0.0,88,0.02,,,-99.99,VWS V12.07,2013-10-18 11:20:00,
2013-10-18 06:25:00,39.7,36.4,29.35,North,0,0.0,0.0,88,0.02,,,-99.99,VWS V12.07,2013-10-18 11:25:00,
2013-10-18 06:30:00,39.7,36.4,29.35,North,0,0.0,0.0,88,0.02,,,-99.99,VWS V12.07,2013-10-18 11:30:00,
2013-10-18 06:35:00,39.7,36.4,29.35,North,0,0.0,0.0,88,0.02,,,-99.99,VWS V12.07,2013-10-18 11:35:00,
2013-10-18 06:40:00,39.7,36.7,29.35,North,0,0.0,0.0,89,0.02,,,-99.99,VWS V12.07,2013-10-18 11:40:00,
2013-10-18 06:45:00,39.7,36.7,29.35,North,0,0.0,0.0,89,0.02,,,-99.99,VWS V12.07,2013-10-18 11:45:00,
2013-10-18 06:50:00,39.7,36.7,29.35,North,0,0.0,0.0,89,0.02,,,-99.99,VWS V12.07,2013-10-18 11:50:00,
2013-10-18 06:55:00,39.7,36.7,29.36,North,0,0.0,0.0,89,0.02,,,-99.99,VWS V12.07,2013-10-18 11:55:00,
2013-10-18 07:00:00,39.9,36.9,29.35,North,0,0.0,0.0,89,0.02,,,-99.99,VWS V12.07,2013-10-18 12:00:00,
2013-10-18 07:05:00,39.9,36.9,29.35,North,0,0.0,0.0,89,0.02,,,-99.99,VWS V12.07,2013-10-18 12:05:00,
2013-10-18 07:10:00,39.9,36.9,29.35,North,0,0.0,0.0,89,0.00,,,-99.99,VWS V12.07,2013-10-18 12:10:00,
2013-10-18 07:15:00,39.9,36.9,29.36,North,0,0.0,0.0,89,0.00,,,-99.99,VWS V12.07,2013-10-18 12:15:00,
2013-10-18 07:20:00,39.9,36.9,29.35,North,0,0.0,0.0,89,0.00,,,-99.99,VWS V12.07,2013-10-18 12:20:00,
2013-10-18 07:25:00,39.9,36.9,29.36,North,0,0.0,0.0,89,0.02,,,-99.99,VWS V12.07,2013-10-18 12:25:00,
2013-10-18 07:30:00,39.9,36.9,29.36,North,0,0.0,0.0,89,0.02,,,-99.99,VWS V12.07,2013-10-18 12:30:00,
2013-10-18 07:35:00,39.9,36.9,29.36,North,0,0.0,0.0,89,0.02,,,-99.99,VWS V12.07,2013-10-18 12:35:00,
2013-10-18 07:40:00,39.9,36.9,29.36,North,0,0.0,0.0,89,0.02,,,-99.99,VWS V12.07,2013-10-18 12:40:00,
2013-10-18 07:45:00,39.9,36.9,29.36,North,0,0.0,0.0,89,0.02,,,-99.99,VWS V12.07,2013-10-18 12:45:00,
2013-10-18 07:50:00,39.9,36.9,29.36,North,0,0.0,0.0,89,0.02,,,-99.99,VWS V12.07,2013-10-18 12:50:00,
2013-10-18 07:55:00,39.9,36.9,29.37,North,0,0.0,0.0,89,0.02,,,-99.99,VWS V12.07,2013-10-18 12:55:00,
2013-10-18 08:00:00,40.1,37.1,29.36,North,0,0.0,0.0,89,0.02,,,-99.99,VWS V12.07,2013-10-18 13:00:00,
2013-10-18 08:05:00,40.1,37.1,29.37,North,0,0.0,0.0,89,0.02,,,-99.99,VWS V12.07,2013-10-18 13:05:00,
2013-10-18 08:10:00,40.1,37.1,29.37,North,0,0.0,0.0,89,0.02,,,-99.99,VWS V12.07,2013-10-18 13:10:00,
2013-10-18 08:15:00,40.1,37.1,29.37,North,0,0.0,0.0,89,0.02,,,-99.99,VWS V12.07,2013-10-18 13:15:00,
2013-10-18 08:20:00,40.1,37.1,29.37,North,0,0.0,0.0,89,0.00,,,-99.99,VWS V12.07,2013-10-18 13:20:00,
2013-10-18 08:25:00,40.1,37.1,29.37,North,0,0.0,0.0,89,0.00,,,-99.99,VWS V12.07,2013-10-18 13:25:00,
2013-10-18 08:30:00,40.1,37.1,29.37,North,0,0.0,0.0,89,0.02,,,-99.99,VWS V12.07,2013-10-18 13:30:00,
2013-10-18 08:35:00,40.1,37.1,29.37,North,0,0.0,0.0,89,0.02,,,-99.99,VWS V12.07,2013-10-18 13:35:00,
2013-10-18 08:40:00,40.2,37.2,29.37,North,0,0.0,0.0,89,0.02,,,-99.99,VWS V12.07,2013-10-18 13:40:00,
2013-10-18 08:45:00,40.2,37.2,29.37,North,0,0.0,0.0,89,0.02,,,-99.99,VWS V12.07,2013-10-18 13:45:00,
2013-10-18 08:50:00,40.2,37.2,29.38,North,0,0.0,0.0,89,0.02,,,-99.99,VWS V12.07,2013-10-18 13:50:00,
2013-10-18 08:55:00,40.2,37.2,29.38,North,0,0.0,0.0,89,0.02,,,-99.99,VWS V12.07,2013-10-18 13:55:00,
2013-10-18 09:00:00,40.2,37.2,29.38,North,0,0.0,0.0,89,0.02,,,-99.99,VWS V12.07,2013-10-18 14:00:00,
2013-10-18 09:05:00,40.2,37.2,29.38,North,0,0.0,0.0,89,0.02,,,-99.99,VWS V12.07,2013-10-18 14:05:00,
2013-10-18 09:10:00,40.4,37.4,29.38,North,0,0.0,0.0,89,0.02,,,-99.99,VWS V12.07,2013-10-18 14:10:00,
2013-10-18 09:15:00,40.4,37.7,29.38,North,0,0.0,0.0,90,0.02,,,-99.99,VWS V12.07,2013-10-18 14:15:00,
2013-10-18 09:20:00,40.4,37.7,29.38,North,0,0.0,0.0,90,0.02,,,-99.99,VWS V12.07,2013-10-18 14:20:00,
2013-10-18 09:25:00,40.2,37.5,29.38,North,0,0.0,0.0,90,0.04,,,-99.99,VWS V12.07,2013-10-18 14:25:00,
2013-10-18 09:30:00,40.2,37.5,29.38,North,0,0.0,0.0,90,0.02,,,-99.99,VWS V12.07,2013-10-18 14:30:00,
2013-10-18 09:35:00,40.2,37.5,29.38,North,0,0.0,0.0,90,0.02,,,-99.99,VWS V12.07,2013-10-18 14:35:00,
2013-10-18 09:40:00,40.4,37.7,29.39,North,0,0.0,0.0,90,0.02,,,-99.99,VWS V12.07,2013-10-18 14:40:00,
2013-10-18 09:45:00,40.4,37.7,29.39,North,0,0.0,0.0,90,0.02,,,-99.99,VWS V12.07,2013-10-18 14:45:00,
2013-10-18 09:50:00,40.4,37.7,29.39,North,0,0.0,0.0,90,0.02,,,-99.99,VWS V12.07,2013-10-18 14:50:00,
2013-10-18 09:55:00,40.4,37.7,29.39,NNE,22,0.0,0.0,90,0.02,,,-99.99,VWS V12.07,2013-10-18 14:55:00,
2013-10-18 10:00:00,40.4,37.7,29.39,NNE,22,0.0,0.0,90,0.04,,,-99.99,VWS V12.07,2013-10-18 15:00:00,
2013-10-18 10:05:00,40.4,37.7,29.39,NNE,22,0.0,0.0,90,0.04,,,-99.99,VWS V12.07,2013-10-18 15:05:00,
2013-10-18 10:10:00,40.4,37.7,29.39,NNE,22,0.0,0.0,90,0.04,,,-99.99,VWS V12.07,2013-10-18 15:10:00,
2013-10-18 10:15:00,40.4,37.7,29.39,NNE,22,0.0,0.0,90,0.04,,,-99.99,VWS V12.07,2013-10-18 15:15:00,
2013-10-18 10:20:00,40.4,37.7,29.39,NNE,22,0.0,0.0,90,0.02,,,-99.99,VWS V12.07,2013-10-18 15:20:00,
2013-10-18 10:25:00,40.2,37.5,29.39,NNE,22,0.0,0.0,90,0.02,,,-99.99,VWS V12.07,2013-10-18 15:25:00,
2013-10-18 10:30:00,40.4,37.7,29.39,NNE,22,0.0,0.0,90,0.04,,,-99.99,VWS V12.07,2013-10-18 15:30:00,
2013-10-18 10:35:00,40.4,37.7,29.39,NNE,22,0.0,0.0,90,0.04,,,-99.99,VWS V12.07,2013-10-18 15:35:00,
2013-10-18 10:40:00,40.4,37.7,29.40,NNE,22,0.0,0.0,90,0.04,,,-99.99,VWS V12.07,2013-10-18 15:40:00,
2013-10-18 10:45:00,40.6,37.9,29.40,NNE,22,0.0,0.0,90,0.04,,,-99.99,VWS V12.07,2013-10-18 15:45:00,
2013-10-18 10:50:00,40.6,37.9,29.40,NNE,22,0.0,0.0,90,0.04,,,-99.99,VWS V12.07,2013-10-18 15:50:00,
2013-10-18 10:55:00,40.8,38.1,29.40,NNW,338,0.0,0.0,90,0.02,,,-99.99,VWS V12.07,2013-10-18 15:55:00,
2013-10-18 11:00:00,40.6,37.9,29.40,NNW,338,0.0,0.0,90,0.02,,,-99.99,VWS V12.07,2013-10-18 16:00:00,
2013-10-18 11:05:00,40.6,37.9,29.41,NNW,338,0.0,0.0,90,0.04,,,-99.99,VWS V12.07,2013-10-18 16:05:00,
2013-10-18 11:10:00,40.8,38.1,29.41,NW,315,0.0,0.0,90,0.04,,,-99.99,VWS V12.07,2013-10-18 16:10:00,
2013-10-18 11:15:00,40.6,37.9,29.41,NW,315,0.0,0.0,90,0.04,,,-99.99,VWS V12.07,2013-10-18 16:15:00,
2013-10-18 11:20:00,40.6,37.9,29.41,NW,315,0.0,0.0,90,0.04,,,-99.99,VWS V12.07,2013-10-18 16:20:00,
2013-10-18 11:25:00,40.6,37.9,29.41,NNW,338,0.0,0.0,90,0.04,,,-99.99,VWS V12.07,2013-10-18 16:25:00,
2013-10-18 11:30:00,40.6,37.9,29.41,NNW,338,0.0,0.0,90,0.04,,,-99.99,VWS V12.07,2013-10-18 16:30:00,
2013-10-18 11:35:00,40.6,37.9,29.41,NNW,338,0.0,0.0,90,0.04,,,-99.99,VWS V12.07,2013-10-18 16:35:00,
2013-10-18 11:40:00,40.6,37.9,29.41,NNW,338,0.0,0.0,90,0.04,,,-99.99,VWS V12.07,2013-10-18 16:40:00,
2013-10-18 11:45:00,40.6,37.9,29.42,West,270,0.0,0.0,90,0.04,,,-99.99,VWS V12.07,2013-10-18 16:45:00,
2013-10-18 11:50:00,40.8,38.1,29.42,NW,315,0.0,0.0,90,0.04,,,-99.99,VWS V12.07,2013-10-18 16:50:00,
2013-10-18 11:55:00,40.8,38.1,29.42,NNE,22,0.0,0.0,90,0.06,,,-99.99,VWS V12.07,2013-10-18 16:55:00,
2013-10-18 12:00:00,40.8,38.1,29.42,NE,45,3.1,3.1,90,0.06,,,-99.99,VWS V12.07,2013-10-18 17:00:00,
2013-10-18 12:05:00,40.8,38.1,29.42,NE,45,0.0,3.1,90,0.04,,,-99.99,VWS V12.07,2013-10-18 17:05:00,
2013-10-18 12:10:00,40.8,38.1,29.42,NE,45,0.0,3.1,90,0.04,,,-99.99,VWS V12.07,2013-10-18 17:10:00,
2013-10-18 12:15:00,41.0,38.3,29.42,NNE,22,0.0,57.2,90,0.04,,,-99.99,VWS V12.07,2013-10-18 17:15:00,
2013-10-18 12:20:00,41.0,38.3,29.42,NW,315,0.0,0.0,90,0.04,,,-99.99,VWS V12.07,2013-10-18 17:20:00,
2013-10-18 12:25:00,41.0,38.3,29.42,NNW,338,0.0,0.0,90,0.04,,,-99.99,VWS V12.07,2013-10-18 17:25:00,
2013-10-18 12:30:00,41.1,38.4,29.42,NNE,22,0.0,1.3,90,0.04,,,-99.99,VWS V12.07,2013-10-18 17:30:00,
2013-10-18 12:35:00,41.1,38.7,29.42,NNE,22,0.0,0.0,91,0.04,,,-99.99,VWS V12.07,2013-10-18 17:35:00,
2013-10-18 12:40:00,41.1,38.7,29.42,NNE,22,0.0,0.0,91,0.04,,,-99.99,VWS V12.07,2013-10-18 17:40:00,
2013-10-18 12:45:00,41.1,38.7,29.42,North,0,0.0,0.0,91,0.04,,,-99.99,VWS V12.07,2013-10-18 17:45:00,
2013-10-18 12:50:00,41.1,38.7,29.42,North,0,0.0,0.0,91,0.04,,,-99.99,VWS V12.07,2013-10-18 17:50:00,
2013-10-18 12:55:00,41.3,38.9,29.42,North,0,0.0,0.0,91,0.02,,,-99.99,VWS V12.07,2013-10-18 17:55:00,
2013-10-18 13:00:00,41.5,39.1,29.42,NNE,22,0.0,3.3,91,0.02,,,-99.99,VWS V12.07,2013-10-18 18:00:00,
2013-10-18 13:05:00,41.3,38.9,29.42,NW,315,0.0,0.0,91,0.02,,,-99.99,VWS V12.07,2013-10-18 18:05:00,
2013-10-18 13:10:00,41.1,38.7,29.42,North,0,0.0,0.0,91,0.02,,,-99.99,VWS V12.07,2013-10-18 18:10:00,
2013-10-18 13:15:00,41.0,38.3,29.42,NE,45,0.0,0.0,90,0.02,,,-99.99,VWS V12.07,2013-10-18 18:15:00,
2013-10-18 13:20:00,41.0,38.3,29.42,WNW,292,0.0,0.0,90,0.02,,,-99.99,VWS V12.07,2013-10-18 18:20:00,
2013-10-18 13:25:00,40.8,38.1,29.42,NE,45,0.0,4.9,90,0.02,,,-99.99,VWS V12.07,2013-10-18 18:25:00,
2013-10-18 13:30:00,40.6,37.9,29.42,NNE,22,0.0,4.9,90,0.02,,,-99.99,VWS V12.07,2013-10-18 18:30:00,
2013-10-18 13:40:00,40.2,37.5,29.42,North,0,0.0,1.1,90,0.02,,,-99.99,VWS V12.07,2013-10-18 18:40:00,
2013-10-18 13:45:00,40.4,37.7,29.42,NNW,338,0.0,1.1,90,0.02,,,-99.99,VWS V12.07,2013-10-18 18:45:00,
2013-10-18 13:50:00,40.2,37.5,29.42,NW,315,2.6,2.6,90,0.02,,,-99.99,VWS V12.07,2013-10-18 18:50:00,
2013-10-18 13:55:00,40.2,37.5,29.42,NNE,22,0.0,2.6,90,0.02,,,-99.99,VWS V12.07,2013-10-18 18:55:00,
2013-10-18 14:00:00,40.2,37.5,29.43,NNE,22,0.0,2.6,90,0.02,,,-99.99,VWS V12.07,2013-10-18 19:00:00,
2013-10-18 14:05:00,40.2,37.5,29.42,NNW,338,0.0,0.4,90,0.02,,,-99.99,VWS V12.07,2013-10-18 19:05:00,
2013-10-18 14:10:00,40.1,37.4,29.42,WNW,292,0.0,0.4,90,0.02,,,-99.99,VWS V12.07,2013-10-18 19:10:00,
2013-10-18 14:15:00,39.9,37.2,29.42,NNE,22,0.0,0.4,90,0.02,,,-99.99,VWS V12.07,2013-10-18 19:15:00,
2013-10-18 14:20:00,39.9,37.2,29.42,NW,315,0.0,0.0,90,0.02,,,-99.99,VWS V12.07,2013-10-18 19:20:00,
2013-10-18 14:25:00,39.7,37.0,29.42,East,90,0.0,0.0,90,0.02,,,-99.99,VWS V12.07,2013-10-18 19:25:00,
2013-10-18 14:30:00,39.7,37.0,29.42,NE,45,1.7,1.7,90,0.00,,,-99.99,VWS V12.07,2013-10-18 19:30:00,
2013-10-18 14:35:00,39.9,37.2,29.42,NE,45,5.5,5.5,90,0.00,,,-99.99,VWS V12.07,2013-10-18 19:35:00,
2013-10-18 14:40:00,39.9,37.2,29.43,WSW,248,0.0,8.9,90,0.00,,,-99.99,VWS V12.07,2013-10-18 19:40:00,
2013-10-18 14:45:00,39.9,37.2,29.43,NW,315,0.0,8.9,90,0.00,,,-99.99,VWS V12.07,2013-10-18 19:45:00,
2013-10-18 14:50:00,39.9,37.2,29.43,NW,315,0.0,1.3,90,0.00,,,-99.99,VWS V12.07,2013-10-18 19:50:00,
2013-10-18 14:55:00,39.9,37.2,29.44,NNE,22,0.0,1.3,90,0.00,,,-99.99,VWS V12.07,2013-10-18 19:55:00,
2013-10-18 15:00:00,39.7,37.0,29.44,North,0,0.0,1.3,90,0.00,,,-99.99,VWS V12.07,2013-10-18 20:00:00,
2013-10-18 15:05:00,39.5,36.8,29.44,NNW,338,0.0,0.0,90,0.00,,,-99.99,VWS V12.07,2013-10-18 20:05:00,
2013-10-18 15:10:00,39.3,36.6,29.43,West,270,0.0,0.0,90,0.00,,,-99.99,VWS V12.07,2013-10-18 20:10:00,
2013-10-18 15:15:00,39.3,36.6,29.43,West,270,0.0,1.3,90,0.00,,,-99.99,VWS V12.07,2013-10-18 20:15:00,
2013-10-18 15:20:00,39.3,36.6,29.43,WNW,292,0.0,0.0,90,0.00,,,-99.99,VWS V12.07,2013-10-18 20:20:00,
2013-10-18 15:25:00,39.2,36.5,29.43,NW,315,0.0,0.0,90,0.00,,,-99.99,VWS V12.07,2013-10-18 20:25:00,
2013-10-18 15:30:00,39.0,36.3,29.43,NW,315,0.0,0.0,90,0.00,,,-99.99,VWS V12.07,2013-10-18 20:30:00,
2013-10-18 15:35:00,39.0,36.3,29.43,NNW,338,0.0,2.4,90,0.00,,,-99.99,VWS V12.07,2013-10-18 20:35:00,
2013-10-18 15:40:00,39.0,36.0,29.44,NNE,22,0.0,2.4,89,0.00,,,-99.99,VWS V12.07,2013-10-18 20:40:00,
2013-10-18 15:45:00,39.0,36.0,29.44,NE,45,0.0,2.4,89,0.00,,,-99.99,VWS V12.07,2013-10-18 20:45:00,
2013-10-18 15:50:00,39.0,36.0,29.44,North,0,0.0,0.0,89,0.00,,,-99.99,VWS V12.07,2013-10-18 20:50:00,
2013-10-18 15:55:00,38.8,35.8,29.44,NNW,338,0.0,0.0,89,0.00,,,-99.99,VWS V12.07,2013-10-18 20:55:00,
2013-10-18 16:00:00,38.8,35.8,29.44,NNW,338,0.0,0.0,89,0.00,,,-99.99,VWS V12.07,2013-10-18 21:00:00,
2013-10-18 16:05:00,38.6,35.6,29.44,NW,315,0.0,0.0,89,0.00,,,-99.99,VWS V12.07,2013-10-18 21:05:00,
2013-10-18 16:10:00,38.4,35.5,29.44,West,270,0.0,0.0,89,0.00,,,-99.99,VWS V12.07,2013-10-18 21:10:00,
2013-10-18 16:15:00,38.3,35.3,29.44,North,0,0.0,0.0,89,0.00,,,-99.99,VWS V12.07,2013-10-18 21:15:00,
2013-10-18 16:20:00,38.3,35.3,29.44,North,0,0.0,0.0,89,0.00,,,-99.99,VWS V12.07,2013-10-18 21:20:00,
2013-10-18 16:25:00,38.1,35.2,29.45,North,0,0.0,0.0,89,0.00,,,-99.99,VWS V12.07,2013-10-18 21:25:00,
2013-10-18 16:30:00,37.9,35.0,29.45,North,0,0.0,0.0,89,0.00,,,-99.99,VWS V12.07,2013-10-18 21:30:00,
2013-10-18 16:35:00,38.1,35.2,29.46,North,0,0.0,0.0,89,0.00,,,-99.99,VWS V12.07,2013-10-18 21:35:00,
2013-10-18 16:40:00,37.9,35.0,29.46,NNW,338,0.0,0.0,89,0.00,,,-99.99,VWS V12.07,2013-10-18 21:40:00,
2013-10-18 16:45:00,37.9,35.0,29.46,NNW,338,0.0,0.0,89,0.00,,,-99.99,VWS V12.07,2013-10-18 21:45:00,
2013-10-18 16:50:00,37.9,35.0,29.45,NNW,338,0.0,0.0,89,0.00,,,-99.99,VWS V12.07,2013-10-18 21:50:00,
2013-10-18 16:55:00,37.9,35.0,29.45,NNW,338,0.0,0.0,89,0.00,,,-99.99,VWS V12.07,2013-10-18 21:55:00,
2013-10-18 17:00:00,37.9,35.0,29.45,NNW,338,0.0,0.0,89,0.00,,,-99.99,VWS V12.07,2013-10-18 22:00:00,
2013-10-18 17:05:00,37.9,35.0,29.45,NNW,338,0.0,0.0,89,0.00,,,-99.99,VWS V12.07,2013-10-18 22:05:00,
2013-10-18 17:10:00,37.9,35.0,29.44,NNW,338,0.0,0.0,89,0.00,,,-99.99,VWS V12.07,2013-10-18 22:10:00,
2013-10-18 17:15:00,37.9,35.0,29.44,NNW,338,0.0,0.0,89,0.00,,,-99.99,VWS V12.07,2013-10-18 22:15:00,
2013-10-18 17:20:00,37.9,35.0,29.44,NNW,338,0.0,0.0,89,0.00,,,-99.99,VWS V12.07,2013-10-18 22:20:00,
2013-10-18 17:25:00,37.9,35.0,29.44,NNW,338,0.0,0.0,89,0.00,,,-99.99,VWS V12.07,2013-10-18 22:25:00,
2013-10-18 17:30:00,37.7,34.8,29.44,NNW,338,0.0,0.0,89,0.00,,,-99.99,VWS V12.07,2013-10-18 22:30:00,
2013-10-18 17:35:00,37.7,34.8,29.44,NNW,338,0.0,0.0,89,0.00,,,-99.99,VWS V12.07,2013-10-18 22:35:00,
2013-10-18 17:40:00,37.7,34.8,29.43,NNW,338,0.0,0.0,89,0.00,,,-99.99,VWS V12.07,2013-10-18 22:40:00,
2013-10-18 17:45:00,37.5,34.6,29.43,NNW,338,0.0,0.0,89,0.00,,,-99.99,VWS V12.07,2013-10-18 22:45:00,
2013-10-18 17:50:00,37.5,34.6,29.44,NNW,338,0.0,0.0,89,0.00,,,-99.99,VWS V12.07,2013-10-18 22:50:00,
2013-10-18 17:55:00,37.5,34.6,29.44,NNW,338,0.0,0.0,89,0.00,,,-99.99,VWS V12.07,2013-10-18 22:55:00,
2013-10-18 18:00:00,37.7,34.8,29.45,NNW,338,0.0,0.0,89,0.00,,,-99.99,VWS V12.07,2013-10-18 23:00:00,
2013-10-18 18:05:00,37.5,34.6,29.46,NNW,338,0.0,0.0,89,0.00,,,-99.99,VWS V12.07,2013-10-18 23:05:00,
2013-10-18 18:10:00,37.5,34.6,29.47,NNW,338,0.0,0.0,89,0.00,,,-99.99,VWS V12.07,2013-10-18 23:10:00,
2013-10-18 18:15:00,37.5,34.6,29.47,NNW,338,0.0,0.0,89,0.00,,,-99.99,VWS V12.07,2013-10-18 23:15:00,
2013-10-18 18:20:00,37.5,34.6,29.47,NNW,338,0.0,0.0,89,0.00,,,-99.99,VWS V12.07,2013-10-18 23:20:00,
2013-10-18 18:25:00,37.4,34.5,29.46,NNW,338,0.0,0.0,89,0.00,,,-99.99,VWS V12.07,2013-10-18 23:25:00,
2013-10-18 18:30:00,37.2,34.3,29.46,NNW,338,0.0,0.0,89,0.00,,,-99.99,VWS V12.07,2013-10-18 23:30:00,
2013-10-18 18:35:00,37.2,34.3,29.46,NNW,338,0.0,0.0,89,0.00,,,-99.99,VWS V12.07,2013-10-18 23:35:00,
2013-10-18 18:40:00,37.2,34.3,29.46,NNW,338,0.0,0.0,89,0.00,,,-99.99,VWS V12.07,2013-10-18 23:40:00,
2013-10-18 18:45:00,37.0,34.1,29.46,NNW,338,0.0,0.0,89,0.00,,,-99.99,VWS V12.07,2013-10-18 23:45:00,
2013-10-18 18:50:00,37.0,34.1,29.46,NNW,338,0.0,0.0,89,0.00,,,-99.99,VWS V12.07,2013-10-18 23:50:00,
2013-10-18 18:55:00,36.6,33.7,29.46,NNW,338,0.0,0.0,89,0.00,,,-99.99,VWS V12.07,2013-10-18 23:55:00,
2013-10-18 19:00:00,36.6,33.7,29.46,NNW,338,0.0,0.0,89,0.00,,,-99.99,VWS V12.07,2013-10-19 00:00:00,
2013-10-18 19:05:00,36.5,33.6,29.46,NNW,338,0.0,0.0,89,0.00,,,-99.99,VWS V12.07,2013-10-19 00:05:00,
2013-10-18 19:10:00,36.3,33.4,29.46,NNW,338,0.0,0.0,89,0.00,,,-99.99,VWS V12.07,2013-10-19 00:10:00,
2013-10-18 19:15:00,36.3,33.4,29.47,NNW,338,0.0,0.0,89,0.00,,,-99.99,VWS V12.07,2013-10-19 00:15:00,
2013-10-18 19:20:00,36.1,33.2,29.46,NNW,338,0.0,0.0,89,0.00,,,-99.99,VWS V12.07,2013-10-19 00:20:00,
2013-10-18 19:25:00,35.7,32.8,29.46,NNW,338,0.0,0.0,89,0.00,,,-99.99,VWS V12.07,2013-10-19 00:25:00,
2013-10-18 19:30:00,35.4,32.5,29.46,NNW,338,0.0,0.0,89,0.00,,,-99.99,VWS V12.07,2013-10-19 00:30:00,
2013-10-18 19:35:00,35.2,32.3,29.47,NNW,338,0.0,0.0,89,0.00,,,-99.99,VWS V12.07,2013-10-19 00:35:00,
2013-10-18 19:40:00,34.8,31.9,29.47,NNW,338,0.0,0.0,89,0.00,,,-99.99,VWS V12.07,2013-10-19 00:40:00,
2013-10-18 19:45:00,34.5,31.6,29.47,NNW,338,0.0,0.0,89,0.00,,,-99.99,VWS V12.07,2013-10-19 00:45:00,
2013-10-18 19:50:00,34.3,31.4,29.47,NNW,338,0.0,0.0,89,0.00,,,-99.99,VWS V12.07,2013-10-19 00:50:00,
2013-10-18 19:55:00,34.1,31.2,29.47,NNW,338,0.0,0.0,89,0.00,,,-99.99,VWS V12.07,2013-10-19 00:55:00,
2013-10-18 20:00:00,33.8,30.9,29.47,NNW,338,0.0,0.0,89,0.00,,,-99.99,VWS V12.07,2013-10-19 01:00:00,
2013-10-18 20:05:00,33.6,30.7,29.46,NNW,338,0.0,0.0,89,0.00,,,-99.99,VWS V12.07,2013-10-19 01:05:00,
2013-10-18 20:10:00,33.2,30.3,29.47,NNW,338,0.0,0.0,89,0.00,,,-99.99,VWS V12.07,2013-10-19 01:10:00,
2013-10-18 20:15:00,33.0,30.1,29.47,NNW,338,0.0,0.0,89,0.00,,,-99.99,VWS V12.07,2013-10-19 01:15:00,
2013-10-18 20:20:00,32.9,30.0,29.47,NNW,338,0.0,0.0,89,0.00,,,-99.99,VWS V12.07,2013-10-19 01:20:00,
2013-10-18 20:25:00,32.5,29.6,29.46,NNW,338,0.0,0.0,89,0.00,,,-99.99,VWS V12.07,2013-10-19 01:25:00,
2013-10-18 20:30:00,32.3,29.4,29.46,NNW,338,0.0,0.0,89,0.00,,,-99.99,VWS V12.07,2013-10-19 01:30:00,
2013-10-18 20:35:00,32.1,29.2,29.47,NNW,338,0.0,0.0,89,0.00,,,-99.99,VWS V12.07,2013-10-19 01:35:00,
2013-10-18 20:40:00,31.8,28.9,29.46,NNW,338,0.0,0.0,89,0.00,,,-99.99,VWS V12.07,2013-10-19 01:40:00,
2013-10-18 20:45:00,31.8,28.9,29.46,NNW,338,0.0,0.0,89,0.00,,,-99.99,VWS V12.07,2013-10-19 01:45:00,
2013-10-18 20:50:00,31.6,28.7,29.46,NNW,338,0.0,0.0,89,0.00,,,-99.99,VWS V12.07,2013-10-19 01:50:00,
2013-10-18 20:55:00,31.6,28.7,29.47,NNW,338,0.0,0.0,89,0.00,,,-99.99,VWS V12.07,2013-10-19 01:55:00,
2013-10-18 21:00:00,31.2,28.3,29.47,NNW,338,0.0,0.0,89,0.00,,,-99.99,VWS V12.07,2013-10-19 02:00:00,
2013-10-18 21:05:00,31.2,28.3,29.47,NNW,338,0.0,0.0,89,0.00,,,-99.99,VWS V12.07,2013-10-19 02:05:00,
2013-10-18 21:10:00,31.1,28.2,29.47,NNW,338,0.0,0.0,89,0.00,,,-99.99,VWS V12.07,2013-10-19 02:10:00,
2013-10-18 21:15:00,30.9,28.0,29.47,NNW,338,0.0,0.0,89,0.00,,,-99.99,VWS V12.07,2013-10-19 02:15:00,
2013-10-18 21:20:00,30.9,28.0,29.47,NNW,338,0.0,0.0,89,0.00,,,-99.99,VWS V12.07,2013-10-19 02:20:00,
2013-10-18 21:25:00,30.7,27.9,29.48,NNW,338,0.0,0.0,89,0.00,,,-99.99,VWS V12.07,2013-10-19 02:25:00,
2013-10-18 21:30:00,30.7,27.9,29.48,NNW,338,0.0,0.0,89,0.00,,,-99.99,VWS V12.07,2013-10-19 02:30:00,
2013-10-18 21:35:00,30.5,27.6,29.47,NNW,338,0.0,0.0,89,0.00,,,-99.99,VWS V12.07,2013-10-19 02:35:00,
2013-10-18 21:40:00,30.3,27.5,29.47,NNW,338,0.0,0.0,89,0.00,,,-99.99,VWS V12.07,2013-10-19 02:40:00,
2013-10-18 21:45:00,30.3,27.5,29.47,NNW,338,0.0,0.0,89,0.00,,,-99.99,VWS V12.07,2013-10-19 02:45:00,
2013-10-18 21:50:00,30.3,27.5,29.46,NNW,338,0.0,0.0,89,0.00,,,-99.99,VWS V12.07,2013-10-19 02:50:00,
2013-10-18 21:55:00,30.2,27.4,29.46,NNW,338,0.0,0.0,89,0.00,,,-99.99,VWS V12.07,2013-10-19 02:55:00,
2013-10-18 22:00:00,30.2,27.4,29.45,NNW,338,0.0,0.0,89,0.00,,,-99.99,VWS V12.07,2013-10-19 03:00:00,
2013-10-18 22:05:00,30.0,27.2,29.45,NNW,338,0.0,0.0,89,0.00,,,-99.99,VWS V12.07,2013-10-19 03:05:00,
2013-10-18 22:15:00,30.0,27.2,29.44,NNW,338,0.0,0.0,89,0.00,,,-99.99,VWS V12.07,2013-10-19 03:15:00,
2013-10-18 22:20:00,30.0,27.2,29.44,NNW,338,0.0,0.0,89,0.00,,,-99.99,VWS V12.07,2013-10-19 03:20:00,
2013-10-18 22:25:00,30.0,27.2,29.44,NNW,338,0.0,0.0,89,0.00,,,-99.99,VWS V12.07,2013-10-19 03:25:00,
2013-10-18 22:30:00,30.0,27.2,29.44,NNW,338,0.0,0.0,89,0.00,,,-99.99,VWS V12.07,2013-10-19 03:30:00,
2013-10-18 22:40:00,30.0,27.4,29.45,NNW,338,0.0,0.0,90,0.00,,,-99.99,VWS V12.07,2013-10-19 03:40:00,
2013-10-18 22:45:00,30.0,27.4,29.47,NNW,338,0.0,0.0,90,0.00,,,-99.99,VWS V12.07,2013-10-19 03:45:00,
2013-10-18 22:50:00,30.0,27.4,29.45,NNW,338,0.0,0.0,90,0.00,,,-99.99,VWS V12.07,2013-10-19 03:50:00,
2013-10-18 22:55:00,30.0,27.4,29.45,NNW,338,0.0,0.0,90,0.00,,,-99.99,VWS V12.07,2013-10-19 03:55:00,
2013-10-18 23:00:00,29.8,27.2,29.45,NNW,338,0.0,0.0,90,0.00,,,-99.99,VWS V12.07,2013-10-19 04:00:00,
2013-10-18 23:05:00,29.8,27.2,29.45,NNW,338,0.0,0.0,90,0.00,,,-99.99,VWS V12.07,2013-10-19 04:05:00,
2013-10-18 23:10:00,29.8,27.2,29.44,NNW,338,0.0,0.0,90,0.00,,,-99.99,VWS V12.07,2013-10-19 04:10:00,
2013-10-18 23:15:00,29.8,27.2,29.45,NNW,338,0.0,0.0,90,0.00,,,-99.99,VWS V12.07,2013-10-19 04:15:00,
2013-10-18 23:20:00,29.8,27.0,29.44,NNW,338,0.0,0.0,89,0.00,,,-99.99,VWS V12.07,2013-10-19 04:20:00,
2013-10-18 23:25:00,29.6,26.8,29.44,NNW,338,0.0,0.0,89,0.00,,,-99.99,VWS V12.07,2013-10-19 04:25:00,
2013-10-18 23:30:00,29.6,26.8,29.44,NNW,338,0.0,0.0,89,0.00,,,-99.99,VWS V12.07,2013-10-19 04:30:00,
2013-10-18 23:35:00,29.6,26.8,29.44,NNW,338,0.0,0.0,89,0.00,,,-99.99,VWS V12.07,2013-10-19 04:35:00,
2013-10-18 23:40:00,29.4,26.6,29.43,NNW,338,0.0,0.0,89,0.00,,,-99.99,VWS V12.07,2013-10-19 04:40:00,
2013-10-18 23:45:00,29.4,26.6,29.44,NNW,338,0.0,0.0,89,0.00,,,-99.99,VWS V12.07,2013-10-19 04:45:00,
2013-10-18 23:50:00,29.4,26.6,29.44,NNW,338,0.0,0.0,89,0.00,,,-99.99,VWS V12.07,2013-10-19 04:50:00,
2013-10-18 23:55:00,29.4,26.6,29.43,NNW,338,0.0,0.0,89,0.00,,,-99.99,VWS V12.07,2013-10-19 04:55:00,